AAR152 RKSI-RJSS

Flight info

Callsign AAR152
Flight time 1h 38m
Altitude 35000
Route EGOBA Y697 LANAT Y51 SAMON Y517 ZUWAI
Aircraft A321/M-SDE3FGHIRWY/LB1

Departure

Time 2026-04-20 12:05
Airport Incheon International Airport (RKSI)

Arrival

Time 2026-04-20 13:43
Airport Sendai Airport (RJSS)
Time Latitude Longitude Altitude Speed Heading
2026-04-20 11:43 37.46584 126.44142 33 ft 0 kts 322°
2026-04-20 11:54 37.46583 126.44143 33 ft 1 kts 322°
2026-04-20 11:54 37.46564 126.44162 29 ft 4 kts 322°
2026-04-20 11:55 37.46542 126.44182 30 ft 4 kts 332°
2026-04-20 11:55 37.46517 126.44194 31 ft 4 kts 352°
2026-04-20 11:55 37.46492 126.44193 31 ft 4 kts 24°
2026-04-20 11:55 37.46476 126.44178 32 ft 3 kts 54°
2026-04-20 11:56 37.46463 126.44155 31 ft 1 kts 54°
2026-04-20 11:58 37.46463 126.44156 31 ft 1 kts 54°
2026-04-20 11:58 37.46485 126.44195 31 ft 11 kts 54°
2026-04-20 11:59 37.46541 126.44294 33 ft 16 kts 54°
2026-04-20 11:59 37.46605 126.44408 33 ft 16 kts 55°
2026-04-20 11:59 37.46653 126.44512 33 ft 13 kts 59°
2026-04-20 11:59 37.46623 126.44600 33 ft 12 kts 144°
2026-04-20 12:00 37.46539 126.44675 32 ft 19 kts 144°
2026-04-20 12:00 37.46426 126.44775 32 ft 20 kts 144°
2026-04-20 12:00 37.46312 126.44877 32 ft 20 kts 145°
2026-04-20 12:00 37.46197 126.44980 31 ft 20 kts 144°
2026-04-20 12:01 37.46080 126.45083 32 ft 21 kts 145°
2026-04-20 12:01 37.45963 126.45187 32 ft 21 kts 144°
2026-04-20 12:01 37.45844 126.45293 32 ft 20 kts 145°
2026-04-20 12:01 37.45731 126.45394 32 ft 20 kts 144°
2026-04-20 12:02 37.45616 126.45497 32 ft 20 kts 144°
2026-04-20 12:02 37.45500 126.45600 32 ft 21 kts 144°
2026-04-20 12:02 37.45383 126.45704 32 ft 20 kts 144°
2026-04-20 12:02 37.45303 126.45777 32 ft 12 kts 134°
2026-04-20 12:03 37.45315 126.45874 32 ft 12 kts 53°
2026-04-20 12:03 37.45365 126.45965 32 ft 13 kts 55°
2026-04-20 12:03 37.45415 126.46054 32 ft 7 kts 55°
2026-04-20 12:03 37.45454 126.46060 32 ft 6 kts 332°
2026-04-20 12:04 37.45493 126.46026 32 ft 9 kts 325°
2026-04-20 12:04 37.45672 126.45865 33 ft 65 kts 325°
2026-04-20 12:04 37.46217 126.45380 33 ft 125 kts 324°
2026-04-20 12:04 37.47065 126.44628 66 ft 169 kts 325°
2026-04-20 12:05 37.48061 126.43767 512 ft 179 kts 322°
2026-04-20 12:05 37.49127 126.42850 1006 ft 190 kts 324°
2026-04-20 12:05 37.50228 126.41941 1728 ft 187 kts 324°
2026-04-20 12:05 37.51288 126.41077 2435 ft 178 kts 326°
2026-04-20 12:06 37.52320 126.40227 2944 ft 177 kts 326°
2026-04-20 12:06 37.53322 126.39364 3406 ft 177 kts 325°
2026-04-20 12:06 37.54327 126.38481 3892 ft 177 kts 326°
2026-04-20 12:06 37.55398 126.37599 4192 ft 185 kts 328°
2026-04-20 12:07 37.56606 126.36981 4509 ft 192 kts 346°
2026-04-20 12:07 37.57895 126.36673 4925 ft 193 kts 344°
2026-04-20 12:07 37.59218 126.36237 5132 ft 203 kts 341°
2026-04-20 12:07 37.60629 126.35718 5430 ft 217 kts 340°
2026-04-20 12:08 37.62078 126.35190 5504 ft 215 kts 343°
2026-04-20 12:08 37.63573 126.35268 5496 ft 226 kts 16°
2026-04-20 12:08 37.64835 126.36657 5505 ft 264 kts 49°
2026-04-20 12:08 37.65701 126.38780 5499 ft 278 kts 60°
2026-04-20 12:09 37.66353 126.41103 5495 ft 282 kts 64°
2026-04-20 12:09 37.66782 126.43543 5496 ft 293 kts 82°
2026-04-20 12:09 37.66490 126.46143 6026 ft 304 kts 98°
2026-04-20 12:09 37.65997 126.48766 6582 ft 312 kts 98°
2026-04-20 12:10 37.65494 126.51460 7167 ft 318 kts 99°
2026-04-20 12:10 37.64982 126.54192 7767 ft 323 kts 99°
2026-04-20 12:10 37.64459 126.56967 8359 ft 328 kts 100°
2026-04-20 12:10 37.63926 126.59782 8995 ft 332 kts 101°
2026-04-20 12:11 37.63385 126.62641 9592 ft 337 kts 101°
2026-04-20 12:11 37.62834 126.65542 10157 ft 344 kts 101°
2026-04-20 12:11 37.62262 126.68566 10304 ft 365 kts 102°
2026-04-20 12:11 37.61653 126.71767 10437 ft 386 kts 102°
2026-04-20 12:12 37.61006 126.75128 10619 ft 402 kts 102°
2026-04-20 12:12 37.60336 126.78592 11079 ft 408 kts 102°
2026-04-20 12:12 37.59658 126.82088 11624 ft 412 kts 102°
2026-04-20 12:12 37.58975 126.85610 12183 ft 416 kts 102°
2026-04-20 12:13 37.58286 126.89163 12763 ft 419 kts 103°
2026-04-20 12:13 37.57592 126.92739 13350 ft 422 kts 103°
2026-04-20 12:13 37.56892 126.96348 13903 ft 426 kts 103°
2026-04-20 12:13 37.56187 126.99980 14369 ft 429 kts 103°
2026-04-20 12:14 37.55485 127.03593 14874 ft 432 kts 103°
2026-04-20 12:14 37.54768 127.07282 15376 ft 436 kts 104°
2026-04-20 12:14 37.54040 127.11010 15878 ft 439 kts 104°
2026-04-20 12:14 37.53310 127.14738 16372 ft 443 kts 104°
2026-04-20 12:15 37.52567 127.18519 16880 ft 446 kts 105°
2026-04-20 12:15 37.51819 127.22330 17381 ft 450 kts 105°
2026-04-20 12:15 37.51063 127.26171 17856 ft 454 kts 105°
2026-04-20 12:15 37.50298 127.30045 18278 ft 458 kts 105°
2026-04-20 12:16 37.49576 127.33974 18668 ft 464 kts 101°
2026-04-20 12:16 37.49264 127.38034 19020 ft 469 kts 90°
2026-04-20 12:16 37.49453 127.42142 19367 ft 473 kts 80°
2026-04-20 12:16 37.50065 127.46223 19769 ft 476 kts 76°
2026-04-20 12:17 37.50735 127.50321 20133 ft 480 kts 76°
2026-04-20 12:17 37.51407 127.54462 20489 ft 485 kts 76°
2026-04-20 12:17 37.52080 127.58645 20824 ft 490 kts 76°
2026-04-20 12:17 37.52753 127.62875 21146 ft 495 kts 76°
2026-04-20 12:18 37.53428 127.67148 21492 ft 500 kts 76°
2026-04-20 12:18 37.54107 127.71463 21815 ft 504 kts 76°
2026-04-20 12:18 37.54794 127.75816 22060 ft 510 kts 76°
2026-04-20 12:18 37.55491 127.80217 22341 ft 515 kts 76°
2026-04-20 12:19 37.56194 127.84656 22774 ft 517 kts 76°
2026-04-20 12:19 37.56896 127.89111 23148 ft 520 kts 76°
2026-04-20 12:19 37.57600 127.93596 23463 ft 524 kts 76°
2026-04-20 12:19 37.58308 127.98120 23626 ft 529 kts 76°
2026-04-20 12:20 37.59023 128.02701 23794 ft 535 kts 76°
2026-04-20 12:20 37.59741 128.07318 24050 ft 539 kts 76°
2026-04-20 12:20 37.60461 128.11968 24337 ft 542 kts 76°
2026-04-20 12:20 37.61182 128.16641 24619 ft 544 kts 76°
2026-04-20 12:21 37.61904 128.21325 25002 ft 544 kts 76°
2026-04-20 12:21 37.62626 128.26022 25286 ft 546 kts 76°
2026-04-20 12:21 37.63349 128.30736 25517 ft 549 kts 76°
2026-04-20 12:21 37.64076 128.35484 25758 ft 552 kts 76°
2026-04-20 12:22 37.64807 128.40251 25984 ft 555 kts 76°
2026-04-20 12:22 37.65541 128.45045 26219 ft 558 kts 76°
2026-04-20 12:22 37.66275 128.49871 26456 ft 561 kts 76°
2026-04-20 12:22 37.67005 128.54715 26755 ft 562 kts 76°
2026-04-20 12:23 37.67731 128.59569 27018 ft 564 kts 77°
2026-04-20 12:23 37.68384 128.64463 27261 ft 568 kts 82°
2026-04-20 12:23 37.68549 128.69450 27480 ft 568 kts 93°
2026-04-20 12:23 37.68172 128.74339 27743 ft 567 kts 103°
2026-04-20 12:24 37.67270 128.79164 27941 ft 562 kts 112°
2026-04-20 12:24 37.65881 128.83744 28079 ft 556 kts 122°
2026-04-20 12:24 37.64055 128.88006 28228 ft 551 kts 129°
2026-04-20 12:24 37.62076 128.92150 28484 ft 551 kts 129°
2026-04-20 12:25 37.60093 128.96291 28782 ft 552 kts 129°
2026-04-20 12:25 37.58101 129.00429 29074 ft 553 kts 130°
2026-04-20 12:25 37.56105 129.04565 29449 ft 551 kts 130°
2026-04-20 12:25 37.54111 129.08687 29750 ft 551 kts 130°
2026-04-20 12:26 37.52115 129.12812 30002 ft 552 kts 130°
2026-04-20 12:26 37.50125 129.16929 30367 ft 549 kts 130°
2026-04-20 12:26 37.48146 129.21032 30674 ft 548 kts 130°
2026-04-20 12:26 37.46168 129.25127 30927 ft 548 kts 130°
2026-04-20 12:27 37.44180 129.29231 31161 ft 549 kts 130°
2026-04-20 12:27 37.42188 129.33339 31389 ft 550 kts 130°
2026-04-20 12:27 37.40194 129.37443 31607 ft 550 kts 130°
2026-04-20 12:27 37.38196 129.41554 31853 ft 551 kts 130°
2026-04-20 12:28 37.36223 129.45607 32081 ft 552 kts 130°
2026-04-20 12:28 37.34189 129.49782 32307 ft 553 kts 130°
2026-04-20 12:28 37.32206 129.53847 32510 ft 554 kts 130°
2026-04-20 12:28 37.30164 129.58032 32711 ft 555 kts 130°
2026-04-20 12:29 37.28171 129.62112 32885 ft 557 kts 130°
2026-04-20 12:29 37.26143 129.66257 33070 ft 558 kts 130°
2026-04-20 12:29 37.24109 129.70411 33293 ft 559 kts 130°
2026-04-20 12:29 37.22070 129.74566 33498 ft 560 kts 130°
2026-04-20 12:30 37.20023 129.78726 33701 ft 561 kts 130°
2026-04-20 12:30 37.17971 129.82885 33876 ft 561 kts 130°
2026-04-20 12:30 37.15917 129.87047 34073 ft 561 kts 130°
2026-04-20 12:30 37.13865 129.91203 34272 ft 561 kts 130°
2026-04-20 12:31 37.11809 129.95363 34477 ft 561 kts 130°
2026-04-20 12:31 37.09759 129.99510 34690 ft 560 kts 130°
2026-04-20 12:31 37.07706 130.03660 34820 ft 561 kts 130°
2026-04-20 12:31 37.05651 130.07814 34875 ft 561 kts 130°
2026-04-20 12:32 37.01537 130.16104 34883 ft 560 kts 130°
2026-04-20 12:32 36.97417 130.24371 34883 ft 560 kts 130°
2026-04-20 12:33 36.93308 130.32614 34883 ft 558 kts 130°
2026-04-20 12:33 36.89193 130.40830 34881 ft 557 kts 130°
2026-04-20 12:34 36.85075 130.49033 34858 ft 557 kts 130°
2026-04-20 12:34 36.80958 130.57225 34893 ft 557 kts 130°
2026-04-20 12:35 36.76836 130.65408 34901 ft 556 kts 130°
2026-04-20 12:35 36.72716 130.73572 34903 ft 556 kts 130°
2026-04-20 12:36 36.68592 130.81724 34907 ft 556 kts 130°
2026-04-20 12:36 36.64466 130.89864 34907 ft 556 kts 130°
2026-04-20 12:37 36.60327 130.97982 34896 ft 555 kts 130°
2026-04-20 12:37 36.56180 131.06082 34904 ft 555 kts 130°
2026-04-20 12:38 36.52071 131.14126 34880 ft 555 kts 130°
2026-04-20 12:38 36.47938 131.22210 34897 ft 554 kts 130°
2026-04-20 12:39 36.41727 131.34295 34912 ft 553 kts 129°
2026-04-20 12:40 36.38419 131.43013 34900 ft 565 kts 110°
2026-04-20 12:40 36.37032 131.52638 34903 ft 569 kts 91°
2026-04-20 12:41 36.36758 131.62450 34897 ft 569 kts 92°
2026-04-20 12:41 36.36441 131.72254 34909 ft 569 kts 92°
2026-04-20 12:42 36.36098 131.82062 34874 ft 568 kts 92°
2026-04-20 12:42 36.35764 131.91847 34884 ft 568 kts 92°
2026-04-20 12:43 36.35436 132.01639 34875 ft 568 kts 92°
2026-04-20 12:43 36.35106 132.11410 34908 ft 567 kts 92°
2026-04-20 12:44 36.34756 132.21167 34928 ft 566 kts 92°
2026-04-20 12:44 36.34402 132.30911 34914 ft 565 kts 92°
2026-04-20 12:45 36.34036 132.40647 34905 ft 565 kts 92°
2026-04-20 12:45 36.33663 132.50367 34907 ft 564 kts 92°
2026-04-20 12:46 36.33359 132.58429 34920 ft 563 kts 92°
2026-04-20 12:46 36.32913 132.69754 34920 ft 562 kts 92°
2026-04-20 12:47 36.32590 132.77783 34925 ft 561 kts 92°
2026-04-20 12:47 36.32196 132.87424 34923 ft 560 kts 92°
2026-04-20 12:48 36.31722 132.98617 34924 ft 559 kts 92°
2026-04-20 12:48 36.31375 133.06687 34926 ft 559 kts 92°
2026-04-20 12:49 36.30957 133.16322 34929 ft 560 kts 92°
2026-04-20 12:49 36.30534 133.25951 34920 ft 559 kts 93°
2026-04-20 12:50 36.30093 133.35499 34918 ft 558 kts 93°
2026-04-20 12:50 36.29645 133.45094 34924 ft 557 kts 92°
2026-04-20 12:51 36.29198 133.54677 34921 ft 556 kts 92°
2026-04-20 12:51 36.28749 133.64236 34923 ft 555 kts 93°
2026-04-20 12:52 36.28285 133.73767 34925 ft 553 kts 93°
2026-04-20 12:52 36.27814 133.83272 34927 ft 552 kts 93°
2026-04-20 12:53 36.27345 133.92752 34927 ft 551 kts 93°
2026-04-20 12:53 36.26865 134.02224 34903 ft 550 kts 93°
2026-04-20 12:54 36.26374 134.11676 34929 ft 549 kts 93°
2026-04-20 12:54 36.25879 134.21105 34925 ft 548 kts 93°
2026-04-20 12:55 36.25369 134.30527 34923 ft 548 kts 93°
2026-04-20 12:55 36.24863 134.39881 34916 ft 547 kts 93°
2026-04-20 12:56 36.24525 134.49282 34938 ft 545 kts 85°
2026-04-20 12:56 36.25678 134.58494 34932 ft 540 kts 74°
2026-04-20 12:57 36.27223 134.67586 34927 ft 539 kts 75°
2026-04-20 12:57 36.28743 134.76692 34924 ft 539 kts 75°
2026-04-20 12:58 36.30249 134.85799 34921 ft 539 kts 75°
2026-04-20 12:58 36.31760 134.94903 34926 ft 539 kts 75°
2026-04-20 12:59 36.33260 135.03997 34927 ft 538 kts 75°
2026-04-20 12:59 36.34741 135.13033 34929 ft 538 kts 75°
2026-04-20 13:00 36.36231 135.22133 34922 ft 538 kts 75°
2026-04-20 13:00 36.37710 135.31240 34923 ft 538 kts 75°
2026-04-20 13:01 36.39182 135.40347 34931 ft 538 kts 75°
2026-04-20 13:01 36.40651 135.49458 34915 ft 538 kts 76°
2026-04-20 13:02 36.42105 135.58550 34923 ft 536 kts 76°
2026-04-20 13:02 36.43547 135.67618 34934 ft 535 kts 76°
2026-04-20 13:03 36.44983 135.76671 34924 ft 534 kts 76°
2026-04-20 13:03 36.46416 135.85708 34920 ft 533 kts 76°
2026-04-20 13:04 36.47832 135.94751 34913 ft 533 kts 76°
2026-04-20 13:04 36.49241 136.03795 34914 ft 533 kts 76°
2026-04-20 13:05 36.50645 136.12838 34902 ft 532 kts 76°
2026-04-20 13:05 36.52028 136.21817 34897 ft 532 kts 76°
2026-04-20 13:06 36.53416 136.30847 34895 ft 531 kts 76°
2026-04-20 13:06 36.54795 136.39869 34893 ft 530 kts 76°
2026-04-20 13:07 36.56163 136.48882 34895 ft 530 kts 76°
2026-04-20 13:07 36.57524 136.57895 34906 ft 530 kts 76°
2026-04-20 13:08 36.58889 136.66906 34907 ft 530 kts 76°
2026-04-20 13:08 36.60235 136.75916 34903 ft 529 kts 77°
2026-04-20 13:09 36.61568 136.84916 34917 ft 529 kts 76°
2026-04-20 13:09 36.62300 136.89862 34902 ft 528 kts 77°
2026-04-20 13:11 36.62455 136.90916 34899 ft 528 kts 77°
2026-04-20 13:11 36.64260 136.99681 34889 ft 514 kts 57°
2026-04-20 13:12 36.67722 137.07424 34885 ft 512 kts 56°
2026-04-20 13:12 36.70997 137.15334 34893 ft 515 kts 59°
2026-04-20 13:13 36.74007 137.23444 34892 ft 516 kts 60°
2026-04-20 13:13 36.76090 137.32010 34888 ft 524 kts 84°
2026-04-20 13:14 36.76495 137.41091 34913 ft 524 kts 85°
2026-04-20 13:14 36.76888 137.50165 34911 ft 522 kts 79°
2026-04-20 13:14 36.77711 137.54526 34931 ft 514 kts 64°
2026-04-20 13:15 36.79254 137.58483 34939 ft 504 kts 54°
2026-04-20 13:15 36.82807 137.66021 34953 ft 504 kts 54°
2026-04-20 13:16 36.86366 137.73560 34954 ft 504 kts 54°
2026-04-20 13:16 36.89894 137.81065 34949 ft 504 kts 54°
2026-04-20 13:17 36.93428 137.88628 34954 ft 505 kts 54°
2026-04-20 13:17 36.96963 137.96209 34935 ft 505 kts 54°
2026-04-20 13:18 37.00529 138.03769 34918 ft 504 kts 52°
2026-04-20 13:18 37.04408 138.11037 34930 ft 502 kts 49°
2026-04-20 13:19 37.08474 138.18146 34922 ft 502 kts 49°
2026-04-20 13:19 37.12494 138.25315 34932 ft 504 kts 50°
2026-04-20 13:20 37.16437 138.32580 34925 ft 504 kts 51°
2026-04-20 13:20 37.20356 138.39872 34922 ft 504 kts 50°
2026-04-20 13:21 37.24294 138.47148 34924 ft 504 kts 50°
2026-04-20 13:21 37.28234 138.54410 34928 ft 503 kts 50°
2026-04-20 13:22 37.32129 138.61707 34922 ft 505 kts 55°
2026-04-20 13:22 37.35361 138.69580 34933 ft 507 kts 59°
2026-04-20 13:23 37.38541 138.77486 34927 ft 506 kts 59°
2026-04-20 13:23 37.41699 138.85327 34927 ft 506 kts 59°
2026-04-20 13:24 37.44893 138.93282 34891 ft 506 kts 59°
2026-04-20 13:24 37.46477 138.97246 34281 ft 510 kts 59°
2026-04-20 13:24 37.48060 139.01215 33313 ft 517 kts 60°
2026-04-20 13:24 37.49676 139.05276 32429 ft 521 kts 60°
2026-04-20 13:25 37.51296 139.09352 31825 ft 519 kts 60°
2026-04-20 13:25 37.52902 139.13405 31231 ft 517 kts 60°
2026-04-20 13:25 37.54507 139.17452 30649 ft 515 kts 60°
2026-04-20 13:25 37.56112 139.21487 29967 ft 516 kts 60°
2026-04-20 13:26 37.57734 139.25560 28834 ft 520 kts 60°
2026-04-20 13:26 37.59333 139.29592 28230 ft 508 kts 60°
2026-04-20 13:26 37.60893 139.33546 27476 ft 500 kts 61°
2026-04-20 13:26 37.62427 139.37443 26662 ft 493 kts 61°
2026-04-20 13:27 37.63942 139.41295 25846 ft 488 kts 61°
2026-04-20 13:27 37.65441 139.45108 25049 ft 482 kts 62°
2026-04-20 13:27 37.66922 139.48877 24278 ft 477 kts 62°
2026-04-20 13:27 37.68387 139.52607 23643 ft 470 kts 62°
2026-04-20 13:28 37.69811 139.56234 23156 ft 450 kts 61°
2026-04-20 13:28 37.71173 139.59706 22761 ft 438 kts 62°
2026-04-20 13:28 37.72520 139.63140 22311 ft 434 kts 62°
2026-04-20 13:28 37.73855 139.66543 21886 ft 431 kts 63°
2026-04-20 13:29 37.75183 139.69931 21444 ft 428 kts 63°
2026-04-20 13:29 37.76310 139.73401 21001 ft 427 kts 73°
2026-04-20 13:29 37.77048 139.77016 20552 ft 424 kts 77°
2026-04-20 13:29 37.77746 139.80627 20097 ft 422 kts 77°
2026-04-20 13:30 37.78442 139.84220 19631 ft 420 kts 77°
2026-04-20 13:30 37.79138 139.87796 19167 ft 418 kts 77°
2026-04-20 13:30 37.79831 139.91353 18709 ft 416 kts 77°
2026-04-20 13:30 37.80513 139.94855 18238 ft 415 kts 78°
2026-04-20 13:31 37.81200 139.98388 17738 ft 412 kts 77°
2026-04-20 13:31 37.81878 140.01884 17274 ft 407 kts 78°
2026-04-20 13:31 37.82548 140.05346 16794 ft 403 kts 77°
2026-04-20 13:31 37.83209 140.08770 16363 ft 398 kts 78°
2026-04-20 13:32 37.83858 140.12141 15975 ft 392 kts 78°
2026-04-20 13:32 37.84501 140.15483 15503 ft 388 kts 79°
2026-04-20 13:32 37.85136 140.18791 15055 ft 385 kts 79°
2026-04-20 13:32 37.85764 140.22061 14565 ft 382 kts 79°
2026-04-20 13:33 37.86383 140.25290 14342 ft 371 kts 79°
2026-04-20 13:33 37.86980 140.28403 14224 ft 357 kts 79°
2026-04-20 13:33 37.87554 140.31413 14102 ft 346 kts 79°
2026-04-20 13:33 37.88105 140.34319 13993 ft 333 kts 80°
2026-04-20 13:34 37.88639 140.37136 13755 ft 327 kts 81°
2026-04-20 13:34 37.89164 140.39917 13404 ft 323 kts 81°
2026-04-20 13:34 37.89683 140.42675 12988 ft 321 kts 81°
2026-04-20 13:34 37.90032 140.45443 12596 ft 315 kts 93°
2026-04-20 13:35 37.89864 140.48168 12175 ft 308 kts 107°
2026-04-20 13:35 37.89206 140.50701 11819 ft 299 kts 120°
2026-04-20 13:35 37.88211 140.52995 11440 ft 297 kts 125°
2026-04-20 13:35 37.87240 140.55289 10936 ft 297 kts 117°
2026-04-20 13:36 37.86715 140.57834 10416 ft 303 kts 101°
2026-04-20 13:36 37.86762 140.60524 9844 ft 308 kts 89°
2026-04-20 13:36 37.87108 140.63178 9480 ft 306 kts 73°
2026-04-20 13:36 37.88261 140.65472 9155 ft 316 kts 44°
2026-04-20 13:37 37.90148 140.66835 8397 ft 315 kts 11°
2026-04-20 13:37 37.92307 140.66967 7590 ft 312 kts 353°
2026-04-20 13:37 37.94468 140.66713 6823 ft 313 kts 351°
2026-04-20 13:37 37.96623 140.66383 6082 ft 311 kts 351°
2026-04-20 13:38 37.98754 140.66047 5402 ft 306 kts 351°
2026-04-20 13:38 38.00868 140.65989 4731 ft 303 kts
2026-04-20 13:38 38.02235 140.66297 4260 ft 301 kts 11°
2026-04-20 13:38 38.04259 140.66846 3796 ft 291 kts 11°
2026-04-20 13:39 38.06170 140.67380 3641 ft 271 kts 12°
2026-04-20 13:39 38.07944 140.67917 3523 ft 258 kts 19°
2026-04-20 13:39 38.09478 140.69014 3404 ft 252 kts 44°
2026-04-20 13:39 38.10555 140.70673 3166 ft 235 kts 66°
2026-04-20 13:40 38.11115 140.72527 2788 ft 217 kts 79°
2026-04-20 13:40 38.11696 140.74815 2381 ft 195 kts 81°
2026-04-20 13:40 38.11974 140.75901 2246 ft 188 kts 81°
2026-04-20 13:40 38.12511 140.78074 1865 ft 217 kts 82°
2026-04-20 13:41 38.12781 140.79318 1692 ft 208 kts 90°
2026-04-20 13:41 38.12948 140.81041 1649 ft 191 kts 92°
2026-04-20 13:41 38.13099 140.82630 1370 ft 171 kts 90°
2026-04-20 13:41 38.13294 140.84080 1250 ft 163 kts 88°
2026-04-20 13:42 38.13491 140.85478 1037 ft 159 kts 91°
2026-04-20 13:42 38.13676 140.88170 547 ft 152 kts 90°
2026-04-20 13:42 38.13841 140.89492 242 ft 150 kts 86°
2026-04-20 13:43 38.13972 140.90790 28 ft 142 kts 84°
2026-04-20 13:43 38.14075 140.91886 17 ft 107 kts 83°
2026-04-20 13:43 38.14151 140.92589 20 ft 54 kts 82°
2026-04-20 13:43 38.14194 140.93000 16 ft 39 kts 82°
2026-04-20 13:44 38.14210 140.93222 16 ft 18 kts 106°
2026-04-20 13:44 38.14103 140.93280 14 ft 18 kts 185°
2026-04-20 13:44 38.14051 140.93200 13 ft 10 kts 262°
2026-04-20 13:44 38.14035 140.93158 13 ft 5 kts 205°
2026-04-20 13:45 38.13999 140.93158 12 ft 6 kts 174°
2026-04-20 13:45 38.13956 140.93165 12 ft 7 kts 172°
2026-04-20 13:45 38.13924 140.93171 12 ft 2 kts 172°
2026-04-20 13:45 38.13916 140.93172 13 ft 1 kts 173°
2026-04-20 13:46 38.13915 140.93172 13 ft 0 kts 173°